Wind_Speed
50 44 37 29 17 5 6 12 15 18 24 28 29 29 28 31 34 35 36 35 37 37 32 30 29 28 27 23 20 16 16 18 19 22 26 27 27 28 27 27 28 28 30 32 33 34 36 38 39 40 41 42 43 43 42 42 42 42 42 43 44 45 43 39 37 37 37 39 39 41 41 39 36 36 37 38 39 39 39 38 39 43 47 52 54 54
49 48 44 37 27 16 7 8 12 16 22 26 27 28 30 32 31 31 31 30 33 34 31 31 31 30 28 22 20 20 22 24 26 26 26 25 26 25 25 27 28 28 29 32 34 35 36 37 37 38 39 40 41 41 41 42 43 44 44 43 43 45 45 42 40 38 37 38 39 39 41 41 40 38 39 40 41 43 44 44 43 44 46 50 53 54
48 50 49 43 35 26 17 13 17 19 19 21 23 27 31 30 26 24 25 28 31 32 31 33 34 31 29 25 22 23 25 26 26 26 23 22 23 23 25 27 28 29 30 33 34 35 36 37 37 37 37 37 38 39 39 40 42 44 45 46 46 46 47 45 44 43 42 41 42 41 42 43 44 43 42 42 43 45 47 46 46 45 44 47 50 53
46 49 51 47 41 34 26 19 20 20 19 21 22 23 25 25 22 21 24 27 30 30 29 31 32 27 25 27 27 26 25 24 22 22 22 22 22 23 24 26 28 30 31 32 33 34 35 36 37 37 36 35 34 35 36 37 39 41 42 44 45 47 49 50 50 50 48 46 45 44 44 44 45 47 47 47 47 48 49 49 48 48 49 49 50 51
45 49 52 51 45 40 34 26 21 20 19 20 21 21 23 23 23 22 22 24 27 27 25 26 28 26 22 23 26 26 23 21 20 20 21 21 22 23 24 26 28 31 33 33 33 33 33 33 34 34 34 33 32 32 33 34 35 37 40 41 43 46 49 51 54 56 56 53 51 49 48 47 46 45 46 49 51 51 52 53 52 52 54 54 52 50
44 47 52 52 47 42 39 34 28 24 22 21 21 20 20 20 20 20 19 21 24 24 23 22 24 27 26 22 22 23 22 20 20 19 20 21 22 24 26 28 29 30 31 31 30 29 30 31 32 32 31 30 30 31 32 33 34 35 37 39 40 43 46 49 52 56 58 59 59 58 57 55 53 50 48 49 51 53 54 54 54 55 55 55 53 51
44 46 48 50 48 44 41 38 35 31 29 26 25 24 22 20 19 19 18 20 22 22 20 19 20 24 25 24 22 22 21 22 22 20 21 22 22 25 28 31 31 30 29 28 27 28 29 31 31 31 31 31 32 32 32 34 35 36 38 39 41 43 45 47 49 52 55 58 61 62 62 62 62 61 58 55 54 54 55 56 57 57 57 55 53 51
42 44 45 46 47 46 42 40 36 34 31 29 27 25 24 23 21 19 19 19 21 20 18 17 19 20 19 21 22 22 21 22 24 23 23 23 24 27 29 30 29 28 27 26 26 27 28 29 30 31 32 32 33 32 32 32 33 34 35 38 40 43 46 49 51 52 54 57 59 61 62 64 64 65 65 63 60 59 59 59 60 60 59 57 54 53
40 42 42 42 43 44 43 41 39 36 34 31 28 24 22 22 22 21 21 21 22 20 17 16 18 19 17 17 19 20 20 21 23 23 22 23 25 26 26 25 24 23 22 22 24 26 27 27 28 28 28 27 27 27 27 27 27 28 28 29 31 33 37 40 44 47 50 54 57 60 61 62 64 64 65 66 65 64 63 62 62 63 62 60 57 57
38 39 39 39 39 40 40 40 41 40 37 34 31 26 23 21 20 20 20 20 20 19 17 16 18 20 18 16 16 17 18 19 20 20 20 20 20 20 19 18 17 17 18 20 22 22 21 20 20 20 20 20 20 20 20 21 21 21 22 23 23 24 25 27 30 33 36 41 47 52 55 58 61 64 65 67 67 68 69 68 67 66 65 64 62 61
36 36 36 36 36 37 37 37 37 38 38 36 33 30 27 24 22 21 21 21 20 18 16 15 15 15 15 14 14 15 16 17 17 17 17 16 14 13 13 13 14 14 15 15 14 12 12 12 13 14 14 14 15 15 16 16 17 18 19 21 22 22 23 24 25 26 27 29 33 37 42 46 51 56 61 65 68 70 71 72 72 71 70 70 68 66
33 33 33 33 34 34 34 33 32 34 35 34 32 31 30 29 27 26 24 22 20 18 17 16 15 13 12 12 10 10 12 12 12 12 13 13 11 9 9 10 9 8 6 5 5 6 7 8 9 10 11 13 14 15 17 19 20 20 21 22 23 23 24 24 25 26 26 27 28 29 31 34 38 42 48 54 61 67 71 73 74 75 75 75 75 74
32 31 30 31 31 31 31 31 30 31 32 31 30 29 30 30 29 28 26 23 22 20 19 19 17 16 13 11 9 6 5 5 4 4 5 5 5 4 4 3 2 1 2 4 5 7 8 10 12 14 15 17 18 20 22 23 23 24 24 24 24 24 24 24 24 25 25 26 27 28 29 31 32 34 36 41 46 54 61 68 73 76 77 78 80 80
31 30 30 29 29 28 28 28 28 29 29 28 27 26 26 27 26 27 26 24 23 20 19 19 19 17 15 13 12 10 8 8 7 6 6 5 5 5 5 5 5 5 6 7 8 10 13 15 17 19 20 21 23 24 25 26 26 26 26 27 27 26 26 26 25 25 25 25 26 27 28 30 31 32 33 35 37 41 46 54 62 69 75 79 81 83
31 30 29 29 28 27 26 25 25 26 26 26 25 24 24 22 22 23 24 23 20 17 16 17 16 16 14 13 12 11 9 8 8 7 7 6 6 6 5 6 6 6 8 9 11 14 16 18 20 21 23 24 24 25 26 27 28 28 29 29 29 29 29 29 28 28 27 27 26 27 27 28 29 31 32 33 34 36 38 42 47 54 62 70 77 82
30 29 28 28 27 26 25 24 24 24 24 23 23 23 22 21 20 20 20 19 17 15 14 13 13 12 12 11 10 9 8 7 6 6 5 5 5 5 5 5 6 7 9 10 13 15 17 19 21 22 23 23 24 25 26 28 29 30 31 31 32 32 32 32 32 32 31 30 29 29 29 29 29 30 31 31 32 33 35 36 39 42 47 54 62 71
29 28 27 26 26 25 24 24 23 22 22 21 21 21 20 19 19 17 17 16 14 12 12 11 10 10 9 8 7 6 5 4 4 4 4 4 4 4 5 6 7 8 9 11 13 15 16 18 20 21 22 23 24 25 27 28 30 31 32 33 34 35 35 36 36 36 36 35 33 32 32 31 31 31 30 30 31 32 33 34 35 37 40 43 48 55
28 27 26 26 25 24 23 22 21 20 20 19 19 19 19 18 17 15 14 13 11 11 10 9 8 8 7 6 5 3 2 2 3 4 4 4 5 6 6 7 8 9 11 12 13 15 16 18 20 22 23 24 26 27 28 30 31 32 34 35 36 37 38 39 39 39 39 39 38 37 36 35 34 33 32 31 30 30 31 33 35 36 37 38 40 44
28 27 26 25 24 23 22 21 20 19 19 18 17 17 17 16 15 14 13 11 10 9 9 7 7 6 6 5 4 3 3 3 5 5 6 7 7 8 8 9 10 11 12 13 14 16 17 19 21 23 24 25 27 28 30 32 33 35 36 37 39 40 41 42 42 43 43 42 42 41 40 40 39 37 35 34 32 31 30 31 33 35 37 38 39 39
28 27 26 25 24 23 22 21 20 19 18 17 17 16 16 15 13 13 12 11 10 8 7 6 5 5 5 4 4 3 3 4 5 6 7 8 9 10 10 11 12 12 13 14 15 16 18 20 21 23 25 26 28 29 32 33 35 37 38 40 41 42 43 44 45 45 46 45 45 44 44 43 42 41 39 37 35 33 32 31 32 33 34 37 39 39
28 26 26 25 24 23 22 21 19 19 18 17 16 16 15 14 13 13 12 11 10 9 7 6 5 5 4 4 4 5 5 5 7 7 8 9 10 11 12 12 12 13 13 15 16 17 18 20 22 24 26 28 30 31 33 35 37 38 40 41 43 44 45 47 48 49 49 48 48 48 47 46 45 44 43 40 38 36 35 34 33 33 33 34 36 38
28 27 25 24 24 23 23 21 20 19 18 17 16 16 15 15 14 13 13 12 11 10 8 7 6 5 5 4 5 6 7 8 9 10 10 11 12 12 13 13 14 14 14 15 17 18 20 21 23 25 28 30 32 33 34 36 38 40 41 43 44 46 47 48 50 51 52 52 51 50 50 49 48 47 46 44 41 40 38 36 35 35 34 34 34 35
29 28 26 24 23 23 22 22 20 19 18 17 17 16 15 15 15 14 14 13 12 11 9 8 8 7 7 6 7 8 9 10 11 12 12 13 13 14 14 15 16 16 16 17 18 20 22 23 25 27 29 31 33 34 36 37 39 41 42 44 45 47 48 49 51 53 54 54 54 53 52 51 51 50 49 47 45 43 42 40 38 36 36 35 35 34
29 28 27 25 24 23 22 22 21 20 19 18 18 17 17 16 16 16 15 15 14 13 12 11 10 10 10 10 10 10 11 12 13 14 15 15 16 17 17 17 18 18 18 18 20 21 23 25 27 29 31 32 34 36 38 39 41 42 44 46 47 49 50 51 52 54 55 56 56 55 54 54 53 53 52 50 49 47 46 44 42 39 38 36 36 36
29 28 27 26 25 24 23 23 22 21 21 20 20 19 19 18 17 17 17 17 16 16 15 14 13 13 13 13 14 14 15 15 16 17 18 18 19 20 20 20 20 19 19 19 21 23 25 27 28 30 32 34 35 37 38 40 42 44 45 47 48 50 52 54 55 56 57 57 58 58 57 56 55 54 54 53 52 51 50 49 47 44 41 38 36 36
29 28 27 25 24 23 23 23 22 22 21 21 21 20 20 20 20 19 19 19 18 18 17 16 16 16 16 16 17 18 19 20 20 21 22 22 22 22 22 22 22 21 20 20 21 23 25 27 29 31 33 34 36 37 39 41 42 44 46 48 49 51 53 55 58 59 59 59 59 58 58 58 57 56 56 55 55 55 54 53 52 50 46 42 38 36
30 29 27 25 24 23 23 22 22 21 21 21 21 21 21 21 21 20 20 20 19 19 19 18 18 18 18 19 19 20 21 21 22 23 23 24 24 24 24 23 22 22 21 20 21 23 25 28 29 31 33 35 37 38 40 41 43 45 47 48 50 51 54 57 59 61 61 61 60 59 59 59 58 58 58 58 57 57 57 56 55 53 51 46 42 38
31 30 28 26 24 23 23 22 22 21 21 21 21 21 21 20 20 20 20 20 20 20 20 19 19 19 19 20 20 21 21 22 22 23 23 24 24 24 24 23 22 22 21 21 22 24 26 28 30 32 33 36 38 39 41 43 45 46 48 50 51 53 56 59 61 62 63 62 62 61 60 59 60 60 60 60 59 59 59 59 58 56 54 50 45 41
31 30 28 26 25 24 24 23 22 21 21 21 21 20 19 19 20 20 21 21 21 21 21 20 19 19 20 20 20 20 21 21 22 22 23 23 23 24 24 23 22 21 21 21 23 26 28 29 31 33 34 36 39 41 43 45 47 48 50 51 54 56 58 61 63 64 64 63 63 62 61 61 61 61 60 60 60 61 60 60 60 58 56 54 49 44
30 29 27 25 24 24 24 24 23 23 22 21 20 20 20 20 21 21 22 22 22 22 22 21 20 19 19 19 20 20 20 21 22 22 22 23 23 23 23 23 22 21 21 22 25 27 29 31 33 35 37 38 41 43 45 47 49 51 53 54 56 58 61 64 65 66 66 65 64 63 63 62 62 62 61 61 61 61 62 61 61 60 58 55 52 48
30 28 26 25 25 25 25 25 24 24 23 21 20 21 21 21 22 22 23 23 22 22 22 21 20 20 19 19 19 20 20 21 22 22 22 22 22 22 22 22 21 21 22 24 26 29 31 33 35 37 39 41 43 45 47 49 52 54 55 57 59 61 64 66 67 67 66 65 64 64 63 63 63 62 62 62 62 63 63 63 62 61 59 57 54 50
30 28 26 26 26 26 27 26 25 24 22 21 21 21 22 22 23 24 24 23 23 22 22 21 20 19 19 18 19 20 21 21 22 22 22 22 22 21 21 21 20 21 23 26 28 30 32 35 37 39 41 44 46 48 50 52 54 56 57 59 61 63 66 68 68 68 67 66 65 64 63 63 63 63 63 63 64 64 64 64 63 62 59 57 55 51
29 28 27 27 27 28 28 27 25 23 23 22 22 23 23 24 24 24 24 24 23 23 22 21 20 19 19 19 19 20 21 21 22 22 21 21 21 20 19 19 20 22 25 27 30 32 34 36 39 41 43 46 48 50 52 55 57 58 59 61 63 66 68 69 69 68 67 65 64 63 63 63 63 63 64 65 65 65 66 65 64 62 60 58 55 52
29 28 27 27 27 29 29 26 23 22 22 22 23 23 24 25 25 25 25 24 23 23 22 21 21 20 19 19 19 20 21 21 21 21 20 20 20 19 19 20 22 24 27 30 32 34 36 38 40 43 45 48 50 52 54 56 59 60 61 63 65 68 70 70 69 68 66 65 64 63 63 63 64 64 65 66 67 67 67 66 64 62 60 57 55 52
28 27 27 27 28 28 27 25 22 22 22 22 23 24 24 25 26 26 26 25 24 23 22 21 21 20 20 19 19 20 21 21 21 21 20 19 18 18 20 22 24 27 30 33 35 37 39 40 42 45 47 50 52 54 56 58 60 61 63 65 68 70 70 70 68 66 65 63 63 63 63 64 64 66 66 67 67 67 67 66 64 62 59 56 54 51
27 26 27 27 27 27 25 23 23 23 22 22 24 24 25 25 26 27 26 26 25 24 23 22 21 20 20 19 19 19 20 22 21 20 19 19 18 18 20 23 26 29 32 34 37 39 41 42 44 47 49 52 54 56 58 60 61 62 65 67 70 71 70 69 67 65 64 63 63 63 64 64 65 66 67 68 67 67 66 64 63 61 58 55 52 49
26 25 25 25 24 24 23 21 22 23 23 23 23 24 24 25 26 26 26 26 26 25 24 23 21 21 20 20 20 20 21 22 22 20 19 18 19 20 23 26 29 32 34 36 38 39 42 44 46 49 52 54 56 58 59 61 62 64 67 69 70 70 69 67 65 64 63 63 64 64 64 65 65 66 68 69 68 67 65 62 60 58 56 53 50 47
24 23 23 23 22 22 22 22 21 21 21 22 23 23 24 24 24 25 25 26 26 26 26 24 23 22 22 21 21 21 21 22 22 21 21 22 23 25 28 30 32 34 36 38 40 41 43 46 49 52 54 56 57 59 60 62 64 67 69 70 70 68 67 65 64 63 63 63 64 65 65 66 66 67 68 69 68 66 64 61 58 56 54 51 49 47
22 21 21 20 21 20 20 21 22 21 21 21 22 23 24 24 24 24 24 25 25 26 26 26 25 24 24 23 23 22 22 23 23 23 23 25 27 29 30 32 33 34 36 39 41 43 46 48 51 53 54 56 58 60 62 65 67 69 70 69 68 66 65 64 63 62 63 63 64 65 66 67 68 69 70 70 69 67 63 60 57 54 52 50 48 46
20 19 19 19 20 20 20 21 22 23 23 23 23 23 24 24 24 24 24 25 25 26 26 27 27 26 26 25 25 24 24 24 25 25 26 27 28 29 31 32 34 36 39 41 43 45 47 49 51 53 55 57 60 62 64 67 68 69 68 67 66 64 63 62 61 62 62 64 65 66 67 69 71 72 73 72 70 68 64 61 58 55 52 50 48 46
18 18 18 19 19 20 20 21 21 22 22 23 23 23 23 24 24 25 25 25 25 25 25 25 26 26 27 26 26 26 25 25 25 26 26 27 28 29 31 34 36 39 41 43 45 47 48 50 52 55 57 60 62 64 66 67 67 67 66 65 63 63 62 62 62 62 63 65 66 67 69 72 75 76 76 74 72 69 66 63 61 59 57 53 51 50
17 17 17 18 19 20 20 20 20 20 21 22 22 22 22 24 25 25 25 24 25 26 26 26 26 26 27 27 27 27 27 27 27 27 28 29 31 32 34 37 39 41 43 45 47 49 51 53 56 58 60 63 64 66 66 67 66 65 64 63 63 63 63 63 64 65 66 66 68 69 71 74 77 78 78 76 74 71 68 65 63 62 60 57 54 52
16 16 17 18 18 19 19 20 20 20 20 21 22 22 22 22 23 24 24 25 25 25 27 28 28 28 27 28 28 28 28 28 29 30 31 32 34 35 37 39 41 42 44 46 48 51 54 56 57 59 61 62 64 64 64 64 63 63 62 63 63 64 65 65 67 68 68 69 69 71 72 74 77 79 79 77 74 70 67 65 63 62 60 58 55 53
15 15 16 16 16 15 16 17 19 20 20 21 21 22 23 23 23 23 24 25 26 26 27 28 29 29 29 28 29 29 29 30 30 31 32 34 35 36 37 39 40 42 43 46 49 51 54 56 57 59 60 60 61 61 61 61 61 61 62 63 64 65 66 67 68 70 71 70 70 72 74 76 78 79 79 76 73 70 67 64 62 61 59 57 55 52
15 15 15 15 15 14 15 15 17 19 20 21 21 22 23 24 24 24 24 25 26 27 27 28 28 29 30 29 29 30 30 31 31 32 33 34 35 37 37 38 40 42 44 47 49 51 53 55 57 58 58 58 58 58 59 60 61 63 64 65 66 67 68 69 69 71 72 73 73 74 75 77 78 80 80 77 73 69 66 64 62 60 58 56 54 52
13 13 13 13 13 14 15 16 17 18 19 20 21 22 23 24 25 25 26 26 27 27 28 29 29 29 30 31 31 31 31 32 32 32 33 34 35 36 37 39 41 43 45 47 49 51 53 55 56 57 57 57 57 58 60 62 64 65 67 68 69 70 71 71 72 73 74 75 75 76 77 78 80 81 80 78 73 69 66 64 62 60 56 54 54 52
12 12 12 12 12 13 15 16 18 18 18 19 21 22 23 24 25 26 27 28 28 29 30 30 31 32 32 33 33 33 33 34 34 34 34 34 34 36 38 40 42 44 46 48 50 52 54 55 56 57 58 59 60 61 63 65 67 68 69 70 71 73 73 74 75 76 77 77 78 78 78 80 81 82 82 79 75 70 66 62 62 61 59 55 53 52
11 11 11 11 11 13 14 15 16 18 18 18 19 20 22 23 24 25 27 28 29 30 30 31 32 33 34 35 36 36 35 35 35 34 34 35 36 38 40 42 43 45 48 50 52 53 54 56 58 59 61 63 64 66 67 69 70 71 72 73 74 75 76 76 77 78 80 80 80 80 81 81 82 83 83 80 76 72 69 66 65 66 65 61 57 54
11 10 9 9 10 12 13 14 15 16 18 19 19 20 21 23 24 25 26 28 29 30 31 32 33 34 35 36 37 37 37 37 36 36 37 37 39 40 42 44 46 48 50 52 54 55 57 59 61 63 65 67 68 69 70 72 73 74 75 76 76 76 77 78 79 80 81 83 83 83 83 84 85 86 85 83 79 76 75 73 70 69 69 68 65 61
11 10 9 9 10 12 14 15 15 15 17 18 20 21 22 23 24 25 26 28 29 30 31 32 34 35 37 38 39 39 40 40 40 40 41 42 43 44 45 47 49 51 54 55 57 59 61 63 64 67 68 70 70 71 72 74 75 76 77 78 79 79 80 81 82 83 83 85 86 86 86 87 89 90 90 89 86 82 79 77 76 73 71 70 68 64
11 10 9 10 11 12 14 16 17 17 17 17 19 21 22 23 24 26 27 28 30 31 32 33 34 35 37 38 40 41 42 43 44 44 45 45 46 47 48 50 52 54 56 58 60 62 64 66 68 70 72 73 73 74 75 76 77 79 80 81 82 83 84 85 85 86 86 87 88 89 89 90 91 92 93 92 89 86 82 79 78 76 73 71 68 65
Wind_Direction
37 34 30 30 35 58 183 199 191 171 165 160 154 155 157 158 162 168 169 169 171 173 175 180 185 186 184 194 204 197 195 205 219 231 237 238 240 243 245 249 253 256 257 257 256 254 255 257 260 264 266 267 267 267 267 266 263 260 259 255 249 245 242 242 247 251 253 254 255 256 255 253 250 247 246 245 245 246 248 251 257 260 258 255 255 256
37 35 35 35 41 55 92 161 166 159 160 159 154 149 150 155 159 162 167 172 174 176 180 185 186 186 189 199 207 204 203 207 217 227 232 238 243 245 248 249 253 257 258 259 259 259 261 262 264 266 268 269 269 269 270 270 267 263 261 260 253 245 239 240 246 250 254 254 252 253 254 254 252 248 246 246 245 246 248 252 257 261 262 259 255 254
39 37 39 39 45 55 69 104 132 146 153 150 147 143 143 148 151 152 162 169 168 171 182 189 189 191 196 203 210 211 210 212 220 226 229 234 238 241 246 248 252 256 257 261 263 264 267 269 269 270 272 274 273 273 274 274 273 268 264 262 259 252 244 242 244 248 253 254 253 252 252 253 253 249 245 245 245 245 248 251 255 257 260 260 259 257
43 42 43 43 47 57 67 84 112 132 141 141 143 143 141 143 150 163 168 164 162 165 174 183 186 191 201 206 210 212 217 222 223 224 226 231 234 237 244 250 255 260 264 269 272 274 275 275 275 277 279 281 281 278 277 277 276 273 269 265 263 260 254 250 247 248 252 253 252 252 251 251 250 247 244 244 245 246 249 251 252 254 257 261 263 262
46 45 46 47 49 57 66 75 92 111 124 132 135 139 144 150 162 173 168 160 162 165 168 176 183 187 192 201 208 211 217 221 221 224 230 234 238 239 242 248 255 264 270 276 280 283 285 285 286 287 288 289 289 285 282 280 277 274 271 268 265 263 260 257 253 252 253 253 253 254 254 254 252 249 246 245 245 247 249 251 252 253 256 260 263 263
48 47 48 49 51 57 65 71 80 93 102 110 114 119 130 142 154 158 153 152 154 157 162 171 181 188 191 197 207 211 212 215 217 226 233 235 241 245 246 251 258 265 269 274 281 287 291 294 296 295 294 292 289 286 284 280 278 274 270 267 264 261 259 258 256 255 255 255 255 256 257 257 256 254 252 249 247 246 247 248 250 251 254 257 259 259
50 49 49 50 53 57 64 70 76 85 91 96 97 97 100 111 127 139 146 150 145 143 149 158 170 181 190 198 206 210 212 216 219 227 233 236 244 251 253 255 260 264 267 272 282 289 293 295 295 294 291 288 285 282 278 274 271 269 266 263 261 259 257 257 256 256 257 257 257 256 257 258 257 257 256 254 251 248 246 246 246 247 250 254 255 252
52 51 51 51 53 55 60 66 72 79 86 89 90 90 92 98 112 128 140 144 144 145 148 157 166 170 184 199 203 206 213 219 223 229 236 239 244 249 253 256 259 265 270 277 286 291 292 290 289 288 286 286 284 282 280 277 274 271 268 264 261 259 258 256 256 255 255 256 256 256 256 257 257 257 257 256 253 250 248 246 244 244 246 250 251 247
53 53 53 53 54 55 57 62 67 72 79 83 86 91 96 100 107 118 129 135 142 150 153 160 165 168 181 193 193 198 207 216 222 229 236 240 245 251 257 260 264 270 276 282 286 287 287 287 287 287 288 288 288 288 289 287 286 283 280 276 272 268 264 260 258 255 254 253 253 254 254 254 255 255 255 255 254 251 249 247 244 243 243 245 247 246
54 54 54 54 55 57 56 59 63 67 71 77 81 88 97 103 107 112 121 130 137 144 149 156 161 167 176 183 186 192 199 209 217 224 232 237 246 258 265 267 270 275 278 282 283 283 287 290 293 295 296 297 298 298 297 295 295 294 293 292 290 287 282 276 271 266 262 257 254 254 254 254 254 254 253 253 253 251 250 248 246 244 242 241 242 244
54 54 55 54 55 58 59 59 63 66 69 72 75 80 87 94 99 103 111 121 127 131 136 141 149 158 168 179 191 198 200 208 214 220 229 236 246 256 262 265 269 273 275 277 282 290 299 304 308 310 311 313 313 314 315 317 318 318 317 314 311 307 304 299 294 288 282 274 267 263 260 258 256 255 254 253 252 251 251 250 248 246 243 241 240 241
53 53 54 55 55 56 58 60 63 67 70 71 72 75 78 82 86 90 96 105 109 110 112 112 114 123 142 162 180 198 203 209 220 229 235 240 246 249 250 252 254 258 267 286 315 330 331 332 335 338 340 341 341 342 343 342 341 339 334 330 325 321 317 313 310 306 302 297 291 284 278 272 266 261 258 255 253 252 251 251 250 248 246 243 241 241
52 51 52 54 55 55 57 57 59 63 68 70 71 73 76 78 80 83 84 86 87 88 91 91 92 96 104 115 123 135 149 151 176 202 202 215 223 213 203 196 179 117 53 27 13 8 5 5 4 4 2 0 359 357 355 353 350 347 345 341 336 332 327 323 319 316 312 309 306 302 297 292 285 278 271 264 259 255 252 251 251 250 249 246 244 243
49 50 50 51 52 53 55 57 58 61 64 66 68 69 72 75 76 80 82 82 82 83 82 80 80 85 89 90 93 97 93 87 87 92 98 109 115 115 112 100 83 63 46 32 21 16 14 12 10 8 5 3 2 360 358 355 353 351 349 347 344 341 338 333 329 325 320 317 314 311 308 304 298 293 287 280 273 266 259 255 252 251 250 249 248 246
47 48 47 48 49 49 51 53 55 59 61 63 65 65 65 67 69 74 79 80 82 84 83 81 81 84 88 88 88 90 90 84 81 85 90 94 92 86 76 63 49 35 24 15 12 10 9 8 7 5 4 2 360 358 356 354 353 352 351 350 349 347 344 342 338 334 330 326 323 319 315 312 308 303 298 292 285 279 271 265 259 255 252 251 250 248
43 44 44 44 45 46 47 48 49 52 56 58 62 63 63 63 65 69 73 77 82 87 89 89 88 85 86 87 84 84 85 83 82 82 75 68 60 47 36 23 11 5 1 0 1 2 3 3 3 2 1 359 357 356 354 354 353 353 352 352 351 350 348 346 344 341 338 335 331 328 325 321 318 313 308 303 298 291 284 277 270 264 259 255 252 251
40 40 40 41 41 42 43 43 44 46 49 50 54 59 59 60 62 65 68 72 77 81 82 86 88 90 88 83 79 78 77 65 52 49 36 25 17 4 356 350 346 347 348 352 354 354 355 356 357 358 357 356 355 354 354 353 353 353 352 352 351 351 350 348 347 345 343 340 338 335 332 329 326 322 318 314 309 304 298 292 284 276 269 263 259 255
35 35 36 37 37 37 37 38 39 39 42 43 45 50 53 54 56 59 63 67 69 69 70 69 72 82 85 79 70 59 43 4 347 346 342 339 337 333 331 331 334 338 343 346 346 347 350 351 352 354 353 353 352 352 353 352 352 352 352 352 351 351 350 349 348 346 345 343 341 339 337 335 331 328 325 322 319 315 309 303 298 292 284 276 268 263
29 29 30 32 32 32 32 32 32 33 35 37 37 40 43 45 46 48 52 57 60 61 62 57 57 68 71 62 50 27 350 330 326 320 318 317 314 313 316 321 327 331 334 338 340 344 346 347 348 349 350 350 350 350 350 350 350 350 350 350 350 350 349 348 347 346 345 344 342 341 339 337 335 332 330 328 326 323 318 312 306 301 296 290 283 275
24 23 23 24 26 28 28 27 26 26 27 29 30 32 33 33 34 35 37 41 45 48 50 45 42 56 58 40 19 3 345 336 331 324 320 318 313 312 314 315 317 320 324 331 338 342 343 343 344 346 346 347 348 348 348 348 348 348 348 348 348 348 348 347 346 345 344 343 342 341 340 338 337 334 332 331 329 328 325 320 314 308 302 297 292 287
20 19 18 17 18 20 22 23 22 21 21 21 23 24 23 22 21 23 24 26 29 31 34 30 20 25 30 9 342 338 334 330 330 331 329 327 324 321 317 313 309 310 318 327 335 339 340 340 341 343 344 345 346 346 346 345 345 345 345 346 346 346 346 345 344 343 342 342 341 340 339 338 337 335 334 332 331 330 329 326 322 316 309 302 297 292
15 15 15 13 13 13 15 16 16 16 16 17 18 19 17 15 13 13 14 14 16 16 15 12 8 3 356 339 325 323 325 326 328 329 329 327 326 321 318 315 312 314 320 327 333 336 338 339 340 342 344 345 345 344 343 343 342 342 343 343 343 344 343 343 342 341 340 340 340 339 338 337 336 335 334 333 332 332 330 329 327 323 316 309 302 296
9 9 10 10 10 10 9 10 10 11 12 13 14 14 12 10 7 5 4 4 3 2 1 357 354 350 341 330 321 317 318 321 322 322 322 322 321 320 320 320 320 321 324 328 331 333 336 338 340 341 343 344 343 341 341 340 340 340 340 341 341 341 341 341 340 339 338 338 338 338 337 336 335 334 333 333 332 332 331 330 329 327 323 316 309 303
5 4 5 5 5 6 6 5 5 6 7 8 9 9 7 4 360 356 354 352 349 348 348 345 340 338 333 325 320 317 314 314 314 315 316 318 321 323 324 325 325 324 324 326 329 332 335 338 339 340 341 342 341 339 339 338 338 338 338 338 339 338 338 338 338 337 337 336 336 336 336 335 334 333 332 332 332 332 332 330 329 328 326 321 316 310
2 1 1 1 1 1 1 1 1 2 3 4 3 2 359 356 351 347 344 341 338 337 336 334 330 328 325 320 318 316 314 314 314 315 317 320 323 325 326 327 326 325 325 326 328 331 334 336 337 338 339 340 339 338 338 337 337 337 337 337 337 337 336 336 336 336 335 335 335 335 334 333 332 332 331 332 332 332 331 330 329 328 326 324 319 314
360 360 360 359 358 358 357 357 358 359 359 359 358 355 351 347 343 340 337 334 332 329 328 327 324 321 318 315 314 314 314 315 316 318 320 321 322 324 325 325 325 325 324 325 327 330 332 334 335 336 337 337 337 337 336 336 336 335 335 335 335 335 335 334 334 335 335 334 334 333 333 331 331 331 331 331 331 330 329 328 327 326 325 324 322 317
357 358 358 357 356 355 354 355 356 356 355 354 351 348 345 343 340 338 336 334 332 329 328 326 323 319 316 314 312 312 312 313 315 316 317 318 319 320 321 322 323 323 322 323 325 328 330 332 333 335 335 335 336 336 335 335 335 335 334 334 334 333 333 333 334 334 334 334 333 332 331 330 330 330 330 330 329 328 327 326 326 325 324 324 322 319
354 355 355 354 353 352 352 353 354 354 351 349 346 345 344 343 342 340 339 337 334 332 330 329 326 321 318 315 313 312 311 312 311 312 313 313 315 317 318 320 321 321 321 322 325 327 330 331 332 334 334 334 334 335 334 334 334 334 333 333 333 333 333 333 334 334 334 333 332 332 331 329 329 329 329 328 327 326 325 324 324 323 323 323 322 319
352 353 352 351 350 348 349 350 351 349 347 346 345 346 346 346 345 343 342 339 338 335 334 332 328 324 321 318 316 313 312 311 310 310 310 311 313 315 317 318 320 321 321 322 325 328 329 330 331 332 333 334 334 334 334 334 334 333 333 332 333 333 333 334 334 333 333 332 331 331 330 329 328 328 327 326 325 324 323 323 322 322 322 322 321 320
350 351 350 348 346 345 345 346 347 346 346 347 348 348 349 349 347 346 345 344 342 340 339 336 332 328 325 321 318 316 314 312 311 311 312 313 314 315 316 319 320 322 322 324 327 328 329 329 330 330 332 334 334 335 334 333 332 332 333 333 333 333 333 333 333 332 332 332 331 330 329 328 328 327 325 324 323 323 322 322 321 321 321 321 321 320
348 348 347 345 343 341 341 344 346 346 347 350 349 349 350 350 350 349 348 348 347 345 344 341 337 335 331 326 321 318 316 315 314 314 315 316 317 317 319 321 322 323 325 327 328 328 328 329 329 330 332 333 334 334 333 333 332 333 333 333 333 333 333 333 332 332 331 330 330 329 328 327 326 325 324 324 323 322 322 321 321 321 321 320 320 320
346 346 344 343 340 338 341 346 348 347 348 351 350 350 352 352 352 352 352 352 351 350 349 346 343 340 335 330 325 321 320 319 318 319 322 322 320 321 322 323 325 327 327 327 327 327 328 328 329 330 332 333 334 333 332 332 332 333 333 333 333 332 332 332 331 331 330 330 329 328 327 326 325 324 324 324 323 322 322 321 321 321 321 320 320 319
344 343 342 340 338 337 341 347 348 346 349 351 350 351 352 353 355 356 355 354 354 354 353 352 349 346 341 336 332 329 327 325 325 329 330 327 326 327 327 327 328 328 327 326 327 328 328 329 329 330 332 332 332 332 332 332 332 332 333 332 332 331 331 331 331 330 330 329 328 327 326 326 325 325 325 324 324 323 322 321 321 321 320 320 319 318
342 341 339 337 335 336 342 348 349 347 349 350 349 351 353 353 355 358 357 356 356 356 356 355 354 352 348 344 342 339 335 331 334 339 338 333 332 333 332 332 331 329 327 326 327 328 329 329 330 330 331 331 331 331 331 331 332 332 332 331 330 330 330 330 330 330 329 328 327 326 326 326 326 326 326 325 324 323 322 321 321 320 320 319 318 316
340 338 335 334 333 336 343 348 347 347 349 350 349 352 354 354 355 357 358 357 357 357 357 357 356 354 352 350 349 346 340 336 341 345 342 338 340 339 336 333 331 329 327 327 328 329 329 329 330 330 330 330 330 331 331 332 332 331 330 329 329 329 330 330 330 329 328 327 327 327 328 328 328 328 327 326 325 324 323 322 321 321 320 319 317 315
337 334 332 333 334 338 344 347 346 346 350 352 351 351 354 354 354 356 357 357 357 357 357 356 356 354 352 351 350 349 343 339 343 345 342 341 340 337 332 329 327 327 327 328 328 329 329 329 329 329 329 330 330 331 331 331 330 329 328 328 329 329 330 330 329 328 327 328 329 330 330 330 330 329 328 327 326 325 324 323 322 322 320 319 317 315
334 330 331 333 336 340 344 346 346 347 349 351 351 349 351 353 352 352 354 355 355 356 356 356 355 353 352 350 349 348 344 340 342 343 340 337 334 330 329 329 328 329 328 327 328 328 328 328 329 329 330 331 331 331 330 329 327 327 327 328 329 330 330 329 328 328 330 331 332 332 332 331 331 331 330 329 328 327 326 325 324 323 322 321 319 317
330 329 332 334 337 341 343 344 347 349 348 348 348 347 348 351 351 350 350 352 353 354 354 354 354 352 351 349 348 346 344 341 341 340 337 334 332 331 331 330 329 329 328 327 328 329 329 329 330 331 331 331 330 329 328 327 327 327 328 329 329 329 329 329 330 332 333 333 334 333 333 332 332 332 332 331 331 330 329 328 327 326 325 324 322 319
327 329 333 334 337 342 343 343 345 348 348 348 347 347 347 348 349 349 349 350 351 353 353 353 352 351 350 348 346 345 344 340 338 336 334 333 332 331 330 329 328 328 329 329 330 331 331 332 332 331 330 329 328 328 327 327 328 329 329 329 329 330 330 331 333 334 334 334 334 334 334 334 334 335 335 334 334 333 332 331 330 329 328 327 324 321
326 331 333 334 338 343 344 343 345 347 348 348 349 350 348 347 348 350 351 351 351 352 352 352 350 349 347 346 345 345 344 341 338 337 336 334 332 330 330 330 330 331 332 332 332 333 332 332 331 330 329 329 328 328 328 328 329 329 329 329 330 331 332 333 334 334 335 336 336 336 336 337 338 338 337 337 336 335 334 334 333 332 331 329 326 323
326 331 333 335 339 341 343 345 347 349 349 350 353 354 351 350 352 354 355 354 352 351 351 352 351 349 347 347 346 345 344 343 341 339 337 335 333 333 333 333 334 334 334 334 334 333 333 332 332 331 330 330 329 329 329 329 329 329 329 330 332 333 334 335 335 336 337 338 339 339 340 341 341 341 340 339 339 338 336 336 336 335 333 331 329 326
326 332 333 337 341 343 344 347 352 355 354 354 357 359 358 356 357 358 358 357 356 354 352 353 354 353 351 350 349 348 347 345 343 342 340 338 337 337 337 337 337 337 336 336 336 335 335 334 333 332 331 331 330 330 330 330 330 331 331 333 334 336 337 338 338 339 340 341 342 342 343 343 343 343 342 341 340 339 338 337 337 335 333 331 329 327
327 332 334 339 344 347 347 349 354 359 360 358 359 1 3 3 3 2 0 360 360 359 357 356 357 358 357 355 353 351 349 347 345 343 342 340 340 339 339 339 339 338 339 339 338 337 336 335 334 333 332 332 332 332 332 331 331 332 334 336 338 339 340 341 342 342 343 344 344 344 345 345 345 344 344 343 342 340 338 338 337 335 333 331 329 326
328 332 336 342 347 351 352 354 358 0 2 3 3 2 3 4 5 4 3 1 1 2 2 360 358 357 357 356 353 351 349 346 345 343 341 340 339 339 340 340 340 341 341 341 340 338 336 335 335 335 335 334 334 334 333 333 334 336 339 340 342 342 343 344 344 344 345 345 346 346 346 346 346 345 345 344 343 341 339 338 337 335 333 331 330 328
329 334 340 347 350 354 359 3 6 6 4 4 5 4 3 3 3 4 4 4 2 1 1 0 358 356 354 352 350 348 345 343 342 340 340 340 340 340 341 342 343 343 343 342 341 340 339 339 339 338 338 338 337 336 337 338 340 342 343 344 345 345 345 346 346 346 346 347 348 348 347 347 347 346 346 345 344 342 341 340 339 337 335 334 333 330
331 336 344 352 355 359 4 7 10 13 11 7 7 7 7 6 5 5 5 5 5 4 2 1 359 356 353 350 348 346 344 342 341 341 341 342 342 343 344 344 345 345 344 343 343 343 343 342 342 341 341 340 340 341 343 344 345 346 346 346 347 347 347 347 347 347 348 348 349 349 348 348 347 347 347 346 345 344 343 342 342 340 339 338 337 335
334 338 347 356 360 4 8 8 7 10 13 11 8 8 8 7 6 5 4 4 4 3 2 1 359 357 355 353 351 349 347 346 346 345 345 345 345 345 345 345 345 345 344 344 344 345 344 343 343 343 344 344 345 346 348 348 348 349 349 349 349 349 348 349 349 349 349 349 349 349 349 349 348 348 347 347 346 344 343 344 346 345 343 341 340 339
331 337 348 357 0 2 7 9 6 3 5 8 7 6 5 4 3 2 1 1 1 360 359 358 357 356 356 355 354 353 352 351 349 348 347 346 346 345 345 345 344 344 344 345 345 344 344 344 345 346 347 348 349 350 350 351 350 350 350 350 350 350 350 350 350 350 350 350 350 350 349 349 349 349 348 348 347 346 345 347 349 349 346 344 342 342
323 332 346 356 358 357 358 2 3 360 358 358 359 0 0 359 359 358 358 357 357 357 356 354 354 354 355 355 356 355 354 352 351 350 348 347 346 346 345 344 344 345 345 345 344 344 345 346 347 349 351 352 352 352 352 352 352 352 351 351 351 351 351 351 351 351 351 351 350 350 350 349 349 349 349 349 349 349 348 348 349 349 348 346 344 342
315 325 338 347 352 351 349 350 354 356 355 352 352 354 355 355 355 355 354 354 353 353 352 352 352 352 352 352 353 354 354 353 352 351 349 349 348 347 346 345 345 346 346 345 344 345 346 348 350 352 353 354 354 354 354 353 353 352 352 352 352 352 352 352 352 352 352 352 351 350 351 351 350 351 351 351 351 351 350 349 349 349 348 347 345 343
307 316 327 337 342 344 342 342 344 348 351 349 348 349 350 351 351 351 351 350 349 349 349 348 348 349 349 349 350 350 351 351 351 350 350 349 348 348 347 347 347 347 345 345 345 346 348 350 352 353 354 355 355 355 354 354 353 353 352 352 353 353 353 353 353 353 353 353 352 351 351 352 352 352 352 352 351 351 350 349 348 348 348 347 345 344
Height
10639 10637 10634 10630 10627 10625 10624 10624 10626 10628 10632 10636 10638 10642 10647 10651 10654 10658 10662 10666 10669 10671 10674 10676 10676 10678 10679 10680 10684 10689 10692 10693 10693 10691 10689 10689 10690 10692 10693 10693 10693 10694 10693 10693 10692 10691 10691 10691 10691 10691 10691 10691 10691 10690 10690 10689 10689 10688 10688 10688 10688 10689 10689 10688 10687 10686 10686 10686 10685 10685 10684 10685 10685 10683 10681 10680 10680 10677 10674 10672 10669 10668 10667 10667 10667 10667
10643 10640 10635 10629 10625 10623 10622 10622 10626 10629 10633 10636 10638 10642 10646 10650 10652 10655 10661 10666 10669 10672 10674 10675 10676 10677 10678 10679 10682 10686 10689 10690 10690 10690 10690 10690 10690 10690 10690 10690 10690 10690 10690 10690 10689 10689 10689 10689 10689 10689 10689 10689 10689 10689 10688 10687 10686 10685 10685 10685 10685 10687 10687 10685 10684 10683 10683 10682 10682 10681 10680 10680 10681 10680 10677 10676 10676 10674 10672 10670 10667 10665 10663 10662 10662 10661
10647 10644 10637 10632 10627 10624 10623 10624 10626 10630 10634 10637 10640 10644 10647 10650 10652 10655 10660 10664 10667 10671 10674 10675 10677 10678 10678 10679 10681 10682 10684 10685 10687 10688 10689 10689 10688 10688 10687 10687 10687 10687 10687 10686 10687 10687 10687 10687 10687 10687 10687 10687 10687 10686 10685 10684 10683 10682 10682 10681 10681 10683 10683 10683 10681 10679 10679 10679 10678 10677 10677 10676 10676 10676 10674 10672 10672 10670 10667 10666 10664 10661 10659 10657 10657 10656
10653 10648 10642 10637 10632 10628 10627 10627 10629 10631 10635 10639 10642 10646 10649 10652 10654 10656 10660 10663 10667 10670 10673 10675 10678 10678 10678 10679 10680 10680 10681 10683 10684 10685 10685 10685 10685 10685 10685 10684 10684 10684 10683 10683 10684 10684 10684 10684 10684 10684 10684 10684 10684 10683 10683 10682 10680 10679 10678 10678 10678 10678 10679 10679 10678 10676 10675 10675 10673 10673 10672 10671 10671 10670 10669 10668 10667 10665 10662 10661 10659 10657 10655 10654 10652 10652
10656 10652 10647 10641 10638 10635 10632 10632 10633 10635 10638 10641 10644 10647 10650 10653 10655 10657 10661 10664 10668 10671 10673 10675 10676 10676 10676 10676 10677 10678 10680 10681 10682 10683 10683 10683 10683 10683 10682 10682 10681 10681 10681 10681 10681 10681 10681 10681 10681 10680 10680 10680 10680 10679 10679 10678 10677 10675 10674 10674 10674 10673 10673 10673 10672 10670 10669 10669 10668 10667 10666 10666 10665 10664 10663 10662 10660 10659 10656 10656 10655 10653 10651 10649 10648 10647
10660 10656 10651 10647 10645 10642 10639 10638 10638 10640 10642 10645 10648 10650 10652 10654 10656 10659 10662 10665 10668 10671 10672 10673 10674 10674 10674 10674 10675 10676 10679 10680 10681 10681 10681 10681 10681 10680 10680 10680 10681 10681 10680 10680 10680 10680 10679 10678 10677 10676 10676 10675 10675 10674 10673 10672 10671 10670 10668 10668 10667 10667 10666 10665 10664 10663 10662 10661 10661 10660 10659 10658 10658 10658 10656 10655 10653 10652 10651 10650 10649 10647 10646 10644 10643 10641
10663 10660 10656 10654 10652 10649 10647 10645 10645 10646 10646 10648 10651 10653 10655 10657 10659 10662 10663 10666 10669 10670 10672 10673 10674 10675 10675 10675 10676 10677 10678 10678 10679 10679 10679 10679 10679 10679 10679 10679 10679 10679 10679 10679 10679 10678 10676 10675 10674 10673 10672 10671 10670 10668 10667 10666 10665 10663 10662 10662 10661 10660 10659 10658 10657 10656 10655 10653 10653 10652 10652 10650 10650 10650 10649 10647 10646 10645 10644 10643 10642 10641 10640 10638 10637 10636
10667 10664 10661 10659 10657 10656 10654 10652 10652 10651 10651 10652 10654 10656 10658 10660 10661 10663 10664 10666 10668 10670 10672 10673 10673 10674 10674 10675 10676 10677 10677 10677 10677 10677 10678 10678 10678 10678 10678 10678 10678 10678 10678 10678 10677 10676 10674 10673 10671 10670 10668 10667 10665 10664 10662 10661 10659 10658 10656 10656 10655 10654 10652 10651 10651 10650 10648 10646 10645 10644 10643 10642 10642 10641 10640 10639 10638 10637 10636 10635 10634 10633 10633 10632 10630 10629
10671 10669 10667 10665 10664 10662 10661 10659 10657 10656 10656 10656 10657 10659 10660 10662 10663 10664 10665 10667 10668 10670 10671 10672 10673 10673 10673 10674 10675 10676 10676 10676 10676 10676 10676 10676 10675 10676 10676 10677 10677 10677 10676 10676 10675 10673 10672 10670 10669 10667 10665 10664 10662 10660 10658 10656 10654 10653 10651 10650 10648 10647 10646 10645 10644 10643 10642 10640 10638 10636 10635 10634 10633 10632 10631 10630 10629 10628 10627 10627 10626 10625 10624 10624 10623 10621
10675 10674 10672 10671 10669 10667 10667 10664 10662 10661 10660 10660 10661 10662 10663 10664 10665 10666 10666 10667 10668 10669 10670 10671 10672 10672 10672 10673 10674 10674 10675 10675 10675 10675 10675 10675 10675 10675 10675 10675 10675 10675 10674 10673 10673 10672 10670 10669 10667 10665 10663 10662 10660 10658 10656 10653 10651 10649 10647 10645 10643 10641 10639 10638 10637 10636 10634 10633 10632 10630 10628 10627 10625 10624 10622 10621 10620 10619 10618 10618 10618 10617 10616 10615 10614 10613
10679 10678 10677 10676 10675 10673 10672 10670 10668 10667 10666 10665 10666 10666 10666 10666 10667 10667 10668 10668 10669 10669 10670 10671 10672 10672 10673 10673 10673 10674 10674 10674 10675 10674 10674 10674 10674 10674 10673 10673 10673 10673 10673 10672 10671 10671 10669 10668 10666 10664 10662 10660 10658 10656 10653 10651 10648 10646 10643 10641 10638 10636 10634 10632 10630 10629 10627 10626 10625 10623 10621 10620 10618 10616 10615 10613 10612 10610 10609 10608 10608 10608 10607 10606 10605 10604
10683 10682 10681 10680 10678 10677 10676 10675 10674 10673 10671 10670 10671 10670 10669 10669 10668 10669 10670 10671 10671 10671 10671 10672 10672 10673 10674 10674 10673 10674 10674 10674 10674 10674 10673 10673 10673 10673 10672 10672 10672 10672 10672 10671 10671 10670 10669 10667 10665 10663 10661 10659 10657 10654 10651 10648 10645 10643 10640 10638 10635 10632 10630 10627 10625 10623 10621 10619 10617 10616 10614 10612 10611 10609 10607 10606 10604 10602 10601 10599 10598 10598 10598 10597 10597 10595
10686 10686 10685 10683 10682 10681 10680 10679 10678 10676 10674 10675 10675 10675 10673 10672 10671 10671 10671 10672 10672 10672 10673 10673 10673 10673 10674 10674 10674 10674 10674 10674 10674 10673 10673 10673 10673 10673 10672 10672 10672 10672 10671 10671 10670 10669 10668 10666 10664 10662 10659 10657 10654 10651 10648 10645 10643 10640 10638 10635 10632 10630 10627 10624 10622 10619 10616 10614 10612 10609 10607 10605 10603 10601 10599 10598 10596 10594 10592 10591 10589 10589 10588 10588 10587 10586
10690 10689 10688 10686 10685 10685 10684 10683 10682 10680 10678 10678 10678 10678 10676 10675 10675 10673 10673 10673 10672 10673 10674 10674 10674 10675 10675 10675 10675 10675 10674 10674 10674 10673 10673 10673 10673 10673 10673 10672 10672 10671 10671 10670 10669 10668 10666 10664 10661 10659 10657 10654 10651 10649 10646 10643 10641 10638 10635 10633 10630 10627 10624 10621 10618 10615 10613 10610 10607 10605 10602 10599 10597 10594 10592 10590 10588 10586 10584 10582 10580 10579 10578 10578 10577 10577
10693 10691 10690 10689 10688 10688 10687 10686 10685 10683 10682 10681 10681 10680 10678 10678 10677 10676 10675 10675 10675 10675 10675 10675 10676 10676 10676 10676 10676 10676 10675 10675 10675 10674 10674 10674 10674 10673 10673 10672 10671 10670 10670 10669 10668 10666 10664 10661 10659 10657 10654 10652 10649 10647 10645 10642 10639 10636 10633 10630 10627 10624 10621 10618 10614 10611 10608 10605 10602 10600 10597 10594 10591 10588 10585 10583 10580 10578 10576 10574 10572 10570 10568 10567 10566 10566
10695 10694 10693 10692 10691 10690 10689 10688 10687 10686 10685 10684 10683 10682 10681 10680 10679 10679 10678 10678 10678 10679 10678 10677 10677 10676 10676 10676 10676 10676 10676 10676 10676 10676 10675 10675 10674 10673 10672 10672 10671 10670 10669 10667 10666 10663 10661 10659 10657 10655 10653 10650 10648 10646 10643 10640 10637 10634 10631 10628 10624 10621 10618 10614 10611 10607 10604 10601 10598 10595 10592 10588 10585 10582 10579 10576 10573 10570 10567 10565 10564 10562 10560 10558 10556 10555
10697 10696 10695 10694 10693 10692 10691 10690 10689 10688 10687 10686 10685 10684 10683 10683 10682 10681 10681 10680 10681 10680 10679 10678 10678 10677 10677 10676 10676 10676 10676 10677 10676 10676 10675 10674 10674 10673 10672 10671 10670 10669 10667 10665 10664 10662 10660 10658 10655 10653 10651 10649 10647 10644 10641 10638 10635 10632 10629 10625 10622 10618 10615 10611 10607 10604 10600 10596 10593 10590 10586 10583 10580 10577 10573 10570 10567 10563 10560 10557 10555 10553 10551 10549 10548 10545
10699 10698 10697 10696 10695 10694 10693 10692 10691 10690 10689 10688 10687 10686 10685 10685 10684 10684 10683 10683 10682 10681 10680 10679 10678 10678 10678 10677 10677 10677 10676 10676 10676 10675 10675 10674 10673 10672 10671 10670 10668 10667 10665 10663 10662 10660 10658 10656 10653 10651 10649 10647 10644 10642 10639 10636 10633 10630 10626 10623 10619 10616 10612 10608 10604 10600 10596 10592 10588 10585 10581 10578 10574 10571 10568 10564 10561 10557 10554 10550 10547 10545 10542 10540 10539 10537
10700 10700 10699 10698 10697 10696 10694 10693 10692 10691 10690 10689 10688 10687 10686 10686 10685 10685 10684 10684 10683 10682 10681 10680 10679 10678 10678 10678 10677 10677 10677 10676 10675 10674 10673 10673 10672 10671 10669 10668 10666 10665 10663 10662 10660 10657 10655 10653 10651 10649 10647 10644 10642 10639 10636 10633 10630 10627 10623 10620 10617 10613 10609 10605 10601 10597 10593 10589 10585 10581 10577 10573 10569 10566 10562 10559 10555 10551 10548 10544 10541 10538 10534 10532 10529 10527
10702 10700 10699 10698 10698 10697 10696 10694 10693 10692 10691 10690 10689 10688 10687 10686 10686 10685 10684 10684 10683 10682 10681 10680 10679 10679 10678 10678 10677 10677 10676 10675 10674 10673 10672 10671 10670 10669 10667 10666 10664 10663 10661 10659 10657 10655 10653 10651 10649 10647 10644 10642 10639 10636 10633 10630 10627 10624 10620 10617 10613 10609 10605 10601 10597 10593 10589 10585 10581 10577 10573 10568 10565 10561 10557 10553 10550 10546 10542 10539 10535 10532 10528 10525 10521 10518
10704 10702 10700 10699 10698 10697 10696 10695 10693 10692 10691 10690 10688 10687 10687 10686 10685 10685 10684 10683 10682 10682 10681 10680 10679 10678 10677 10677 10676 10676 10675 10674 10673 10672 10671 10670 10668 10667 10665 10664 10663 10661 10659 10657 10654 10652 10651 10649 10647 10644 10642 10639 10636 10633 10630 10627 10624 10621 10617 10613 10610 10606 10602 10597 10593 10589 10585 10581 10577 10573 10568 10564 10560 10556 10552 10548 10545 10541 10537 10533 10530 10526 10522 10518 10515 10511
10705 10703 10702 10700 10698 10697 10695 10694 10693 10692 10691 10689 10688 10687 10686 10685 10684 10684 10683 10682 10682 10681 10680 10679 10678 10677 10676 10676 10675 10674 10673 10672 10671 10670 10669 10668 10666 10665 10663 10662 10660 10658 10656 10654 10652 10650 10648 10646 10644 10641 10638 10636 10633 10630 10627 10624 10621 10617 10614 10610 10606 10602 10598 10594 10589 10585 10580 10576 10572 10568 10564 10560 10556 10552 10547 10543 10539 10535 10532 10528 10524 10520 10516 10512 10508 10505
10705 10704 10702 10701 10699 10697 10695 10694 10692 10691 10690 10689 10688 10687 10686 10685 10684 10683 10682 10681 10680 10680 10679 10678 10677 10676 10675 10674 10673 10672 10671 10670 10669 10668 10667 10666 10664 10663 10661 10659 10657 10654 10652 10651 10649 10647 10645 10643 10641 10638 10636 10633 10630 10627 10624 10622 10618 10614 10610 10607 10603 10599 10594 10590 10586 10581 10576 10572 10567 10563 10559 10555 10551 10547 10542 10538 10534 10530 10526 10522 10519 10515 10511 10506 10502 10498
10706 10704 10702 10700 10699 10697 10695 10693 10692 10691 10689 10688 10687 10686 10685 10684 10683 10682 10681 10680 10679 10678 10677 10676 10675 10674 10673 10672 10671 10671 10670 10668 10667 10666 10664 10663 10661 10659 10657 10655 10653 10651 10650 10648 10646 10644 10642 10640 10638 10635 10633 10630 10627 10624 10621 10618 10614 10611 10607 10603 10598 10594 10590 10586 10582 10577 10572 10567 10562 10558 10554 10550 10546 10541 10537 10532 10528 10524 10520 10516 10513 10509 10506 10501 10496 10492
10707 10704 10702 10700 10698 10696 10694 10692 10691 10689 10688 10687 10686 10685 10684 10683 10682 10680 10679 10678 10677 10676 10675 10674 10673 10672 10671 10670 10669 10667 10666 10665 10664 10662 10661 10659 10657 10656 10654 10652 10651 10649 10647 10646 10644 10642 10640 10638 10636 10633 10630 10628 10625 10622 10618 10615 10611 10607 10603 10599 10594 10589 10585 10580 10576 10572 10568 10562 10557 10553 10548 10544 10540 10536 10531 10526 10522 10517 10513 10509 10505 10502 10499 10495 10491 10486
10707 10705 10703 10700 10698 10696 10694 10692 10690 10689 10687 10686 10685 10683 10682 10681 10679 10678 10676 10675 10674 10672 10672 10671 10670 10669 10668 10667 10665 10664 10663 10661 10660 10658 10656 10655 10654 10652 10651 10650 10648 10647 10645 10644 10642 10640 10638 10636 10634 10631 10628 10625 10623 10620 10616 10613 10609 10605 10600 10596 10591 10586 10581 10576 10572 10568 10563 10558 10553 10548 10543 10538 10534 10530 10525 10520 10516 10511 10507 10502 10498 10495 10492 10488 10485 10481
10707 10705 10703 10701 10698 10696 10694 10692 10691 10689 10688 10686 10684 10683 10681 10679 10678 10676 10674 10673 10671 10670 10669 10668 10667 10666 10664 10663 10662 10661 10659 10658 10656 10655 10654 10652 10651 10650 10648 10647 10646 10644 10643 10642 10640 10639 10637 10635 10632 10630 10627 10623 10620 10617 10614 10610 10606 10602 10597 10593 10588 10583 10578 10573 10568 10563 10558 10553 10548 10544 10539 10533 10528 10523 10519 10514 10509 10505 10500 10496 10491 10487 10484 10480 10477 10474
10706 10704 10702 10700 10698 10695 10694 10692 10691 10690 10688 10686 10684 10682 10680 10679 10677 10675 10673 10671 10670 10668 10667 10666 10664 10663 10662 10660 10659 10658 10657 10655 10654 10653 10652 10650 10649 10648 10646 10645 10644 10642 10641 10640 10638 10637 10635 10633 10630 10627 10624 10621 10618 10614 10611 10607 10603 10599 10594 10589 10584 10579 10574 10569 10564 10558 10553 10548 10543 10538 10533 10528 10523 10517 10512 10507 10503 10498 10494 10489 10484 10480 10476 10472 10469 10466
10705 10703 10701 10699 10697 10695 10693 10692 10691 10689 10687 10686 10684 10682 10680 10678 10676 10674 10672 10670 10669 10667 10666 10664 10663 10661 10660 10658 10657 10656 10655 10653 10652 10651 10650 10648 10647 10646 10644 10643 10641 10640 10639 10637 10636 10634 10632 10630 10627 10625 10622 10619 10615 10611 10607 10602 10598 10594 10590 10585 10580 10575 10570 10564 10559 10553 10548 10543 10537 10532 10527 10522 10517 10512 10506 10502 10497 10492 10487 10482 10477 10473 10468 10464 10460 10457
10705 10703 10701 10698 10696 10694 10693 10691 10690 10688 10686 10684 10682 10680 10679 10677 10675 10674 10672 10670 10668 10666 10664 10663 10661 10660 10658 10657 10655 10654 10653 10651 10650 10649 10647 10646 10645 10643 10642 10641 10639 10638 10637 10635 10634 10631 10629 10627 10624 10621 10618 10615 10612 10607 10603 10598 10594 10589 10585 10580 10575 10569 10564 10559 10553 10548 10542 10537 10532 10526 10521 10516 10511 10506 10501 10496 10491 10485 10480 10475 10470 10465 10460 10456 10452 10448
10704 10702 10700 10698 10696 10694 10692 10691 10689 10687 10685 10683 10681 10679 10678 10676 10674 10673 10671 10669 10667 10665 10663 10661 10659 10658 10657 10655 10653 10652 10651 10649 10648 10647 10645 10644 10643 10641 10640 10639 10638 10636 10635 10633 10631 10629 10626 10623 10620 10617 10614 10611 10607 10603 10599 10594 10589 10585 10579 10574 10569 10564 10559 10553 10548 10543 10537 10531 10526 10521 10515 10510 10504 10499 10494 10489 10483 10478 10472 10467 10462 10457 10452 10448 10443 10439
10703 10701 10699 10697 10694 10692 10690 10689 10687 10685 10683 10682 10680 10678 10677 10675 10673 10671 10669 10667 10665 10664 10662 10660 10658 10656 10655 10653 10652 10650 10649 10648 10646 10645 10644 10642 10641 10640 10639 10637 10636 10635 10633 10631 10629 10626 10623 10620 10617 10614 10610 10606 10603 10598 10594 10590 10585 10580 10575 10570 10564 10559 10554 10548 10543 10537 10531 10526 10520 10515 10509 10504 10498 10492 10487 10481 10475 10470 10464 10458 10453 10448 10444 10439 10435 10431
10702 10700 10697 10695 10692 10690 10689 10688 10686 10684 10682 10681 10679 10677 10676 10674 10672 10670 10668 10666 10664 10662 10660 10659 10657 10655 10654 10652 10651 10649 10648 10646 10645 10644 10643 10641 10639 10638 10637 10636 10635 10633 10631 10629 10626 10623 10620 10617 10614 10610 10607 10603 10599 10595 10590 10585 10580 10575 10570 10565 10560 10554 10549 10543 10537 10532 10526 10520 10514 10509 10503 10497 10491 10485 10479 10473 10467 10461 10455 10450 10444 10439 10435 10431 10426 10422
10701 10698 10695 10693 10691 10689 10688 10687 10685 10683 10681 10679 10678 10676 10675 10673 10671 10669 10667 10665 10663 10661 10659 10658 10656 10654 10653 10651 10650 10648 10646 10644 10643 10643 10641 10640 10638 10637 10635 10634 10632 10630 10628 10625 10623 10621 10618 10614 10611 10607 10603 10599 10595 10591 10586 10581 10576 10570 10565 10560 10555 10550 10544 10538 10532 10526 10520 10514 10509 10503 10497 10490 10484 10478 10471 10465 10459 10452 10447 10441 10435 10431 10426 10421 10417 10413
10699 10697 10694 10692 10689 10688 10686 10685 10684 10682 10681 10679 10677 10675 10674 10672 10670 10668 10666 10664 10662 10661 10659 10657 10655 10653 10652 10650 10648 10647 10644 10642 10642 10641 10639 10638 10637 10635 10634 10632 10630 10627 10625 10622 10620 10617 10614 10611 10608 10604 10600 10596 10592 10587 10582 10577 10571 10565 10560 10555 10551 10545 10539 10533 10527 10521 10515 10510 10503 10497 10490 10484 10477 10470 10464 10458 10451 10444 10438 10432 10426 10421 10416 10412 10408 10404
10698 10695 10693 10691 10689 10687 10686 10684 10682 10680 10679 10678 10676 10674 10672 10671 10669 10667 10665 10663 10661 10660 10658 10656 10654 10652 10651 10649 10647 10645 10643 10641 10640 10639 10637 10636 10635 10633 10632 10630 10628 10626 10623 10620 10617 10614 10611 10608 10605 10601 10597 10593 10588 10582 10577 10572 10567 10563 10557 10552 10546 10540 10534 10528 10522 10516 10510 10504 10497 10490 10484 10477 10470 10463 10456 10449 10443 10436 10429 10423 10417 10412 10407 10403 10399 10394
10697 10695 10692 10690 10689 10687 10685 10684 10682 10680 10678 10676 10675 10673 10672 10670 10668 10666 10664 10663 10661 10659 10657 10655 10653 10651 10649 10648 10646 10644 10641 10639 10638 10637 10635 10634 10633 10631 10630 10628 10626 10623 10620 10618 10615 10613 10609 10605 10602 10598 10593 10588 10582 10578 10573 10568 10564 10560 10554 10548 10541 10535 10529 10523 10517 10510 10504 10497 10489 10483 10476 10470 10464 10457 10449 10441 10434 10427 10420 10414 10409 10403 10398 10394 10389 10385
10696 10694 10692 10690 10689 10687 10685 10683 10682 10681 10679 10677 10675 10673 10671 10669 10668 10665 10663 10662 10660 10658 10656 10654 10652 10650 10648 10646 10645 10643 10640 10638 10636 10635 10633 10631 10630 10629 10627 10625 10623 10621 10618 10615 10613 10610 10607 10603 10598 10593 10588 10583 10579 10575 10570 10566 10560 10554 10548 10542 10536 10530 10524 10517 10511 10504 10497 10490 10484 10477 10470 10464 10457 10450 10442 10434 10426 10418 10412 10405 10400 10394 10389 10385 10381 10376
10695 10694 10692 10690 10688 10687 10685 10683 10681 10680 10678 10676 10674 10672 10669 10668 10666 10664 10662 10660 10659 10657 10655 10653 10651 10648 10647 10645 10643 10642 10640 10638 10636 10635 10633 10631 10629 10627 10626 10624 10622 10619 10617 10614 10611 10607 10603 10599 10594 10590 10586 10581 10577 10572 10566 10560 10555 10549 10543 10537 10531 10524 10518 10511 10505 10499 10493 10486 10479 10471 10464 10456 10449 10441 10433 10425 10416 10409 10403 10397 10391 10386 10381 10377 10372 10368
10694 10693 10692 10689 10688 10686 10684 10682 10680 10678 10676 10674 10673 10670 10668 10666 10665 10663 10661 10659 10657 10655 10653 10651 10649 10647 10645 10644 10642 10641 10639 10637 10635 10634 10632 10631 10629 10627 10624 10622 10620 10617 10614 10611 10608 10604 10600 10596 10592 10587 10583 10578 10573 10567 10561 10555 10549 10544 10538 10532 10526 10520 10514 10507 10502 10495 10489 10481 10473 10465 10456 10448 10439 10431 10423 10416 10408 10400 10394 10388 10382 10377 10373 10368 10363 10359
10694 10693 10691 10689 10687 10685 10683 10681 10680 10677 10675 10673 10671 10669 10667 10665 10663 10662 10660 10658 10656 10654 10652 10651 10649 10647 10645 10643 10641 10640 10639 10637 10636 10634 10632 10630 10628 10626 10623 10620 10617 10614 10610 10607 10603 10600 10597 10593 10588 10583 10577 10572 10566 10561 10555 10550 10545 10539 10533 10528 10521 10515 10509 10503 10497 10490 10483 10475 10467 10458 10448 10439 10430 10422 10414 10407 10399 10392 10385 10379 10374 10368 10363 10359 10355 10350
10693 10692 10690 10688 10686 10684 10682 10680 10679 10677 10675 10672 10670 10669 10667 10664 10662 10661 10659 10657 10655 10653 10651 10649 10648 10646 10644 10642 10640 10639 10637 10635 10633 10632 10630 10628 10625 10623 10620 10617 10614 10610 10607 10603 10598 10594 10590 10586 10581 10576 10571 10565 10560 10555 10550 10544 10539 10534 10528 10522 10516 10509 10503 10497 10490 10483 10476 10469 10460 10451 10442 10433 10424 10415 10407 10399 10392 10385 10378 10372 10366 10361 10355 10351 10346 10342
10692 10691 10689 10687 10685 10683 10681 10679 10677 10676 10674 10672 10670 10668 10666 10664 10662 10660 10658 10656 10654 10653 10650 10648 10646 10644 10643 10641 10638 10637 10635 10633 10631 10629 10626 10624 10622 10619 10617 10614 10611 10607 10604 10600 10595 10591 10586 10582 10577 10572 10567 10562 10556 10551 10545 10540 10534 10529 10523 10517 10510 10504 10497 10490 10482 10475 10468 10462 10454 10445 10436 10428 10419 10410 10401 10394 10386 10379 10373 10366 10361 10355 10349 10343 10338 10334
10691 10690 10688 10686 10685 10683 10681 10679 10677 10675 10673 10671 10669 10667 10665 10663 10662 10660 10658 10655 10653 10652 10650 10648 10645 10643 10641 10639 10637 10635 10633 10631 10629 10626 10624 10622 10619 10617 10615 10612 10609 10605 10602 10598 10594 10589 10584 10579 10574 10569 10564 10559 10553 10547 10542 10536 10530 10524 10518 10512 10505 10498 10491 10484 10476 10468 10461 10455 10448 10439 10430 10422 10414 10405 10396 10388 10381 10374 10368 10362 10356 10349 10343 10336 10331 10326
10690 10688 10687 10685 10684 10682 10681 10679 10677 10675 10673 10671 10669 10667 10664 10662 10660 10659 10657 10655 10653 10651 10649 10647 10645 10642 10640 10638 10636 10634 10631 10629 10627 10625 10623 10620 10617 10614 10612 10609 10606 10603 10599 10595 10591 10586 10581 10575 10570 10565 10560 10555 10550 10544 10538 10531 10524 10517 10511 10505 10498 10492 10485 10478 10471 10464 10455 10447 10440 10432 10424 10416 10408 10399 10391 10383 10376 10369 10362 10356 10350 10343 10337 10330 10323 10317
10688 10687 10685 10684 10683 10681 10679 10678 10676 10675 10673 10670 10668 10666 10664 10662 10660 10658 10656 10654 10653 10650 10648 10646 10644 10642 10640 10637 10635 10632 10630 10628 10626 10624 10621 10618 10615 10612 10609 10606 10603 10600 10597 10593 10589 10583 10578 10572 10567 10562 10557 10551 10546 10539 10532 10525 10518 10512 10505 10498 10491 10485 10478 10471 10464 10457 10449 10440 10433 10425 10418 10410 10402 10393 10385 10378 10370 10363 10357 10351 10344 10337 10330 10323 10316 10309
10686 10685 10684 10683 10682 10680 10678 10677 10675 10674 10672 10670 10668 10666 10664 10662 10660 10658 10656 10653 10651 10649 10647 10645 10643 10641 10638 10636 10634 10631 10629 10626 10624 10621 10619 10616 10613 10610 10607 10604 10600 10597 10594 10590 10585 10581 10575 10570 10565 10559 10553 10546 10540 10533 10526 10519 10512 10506 10499 10492 10485 10478 10471 10464 10456 10448 10441 10434 10427 10419 10412 10404 10396 10388 10380 10372 10364 10357 10350 10344 10337 10328 10321 10315 10309 10303
10685 10684 10683 10682 10681 10679 10678 10676 10675 10673 10671 10670 10668 10666 10664 10662 10660 10658 10655 10653 10651 10649 10646 10644 10642 10639 10637 10635 10632 10629 10627 10624 10622 10619 10617 10614 10611 10608 10604 10601 10598 10595 10590 10586 10581 10577 10573 10567 10560 10554 10546 10539 10532 10525 10519 10512 10506 10499 10493 10486 10479 10472 10465 10458 10451 10443 10434 10426 10419 10413 10405 10397 10390 10382 10373 10366 10357 10348 10339 10332 10326 10319 10312 10306 10300 10295
10683 10683 10682 10681 10680 10679 10677 10676 10675 10673 10671 10669 10667 10666 10664 10662 10660 10657 10655 10653 10651 10648 10646 10643 10640 10638 10636 10633 10631 10628 10626 10623 10620 10617 10615 10612 10609 10605 10601 10598 10594 10590 10586 10581 10577 10573 10568 10561 10554 10547 10540 10533 10526 10519 10513 10506 10499 10493 10487 10481 10475 10468 10461 10453 10446 10438 10429 10420 10413 10406 10398 10390 10381 10373 10364 10355 10346 10338 10329 10322 10317 10312 10306 10299 10293 10287
10682 10682 10681 10680 10679 10678 10676 10675 10674 10673 10671 10669 10667 10665 10663 10661 10659 10657 10655 10652 10650 10647 10645 10642 10640 10637 10634 10631 10628 10626 10623 10620 10617 10614 10611 10608 10605 10602 10598 10594 10589 10584 10580 10576 10571 10566 10561 10554 10547 10540 10534 10527 10521 10514 10508 10501 10495 10488 10482 10476 10469 10462 10455 10447 10439 10431 10424 10415 10406 10398 10391 10382 10373 10363 10353 10344 10337 10330 10324 10317 10310 10305 10301 10296 10290 10283
10680 10680 10680 10679 10678 10677 10675 10674 10672 10671 10670 10669 10667 10664 10662 10660 10658 10656 10654 10651 10649 10646 10644 10641 10639 10636 10633 10630 10626 10623 10620 10617 10614 10611 10608 10605 10601 10598 10594 10589 10585 10580 10576 10572 10567 10561 10555 10548 10540 10534 10527 10521 10514 10508 10502 10496 10489 10483 10476 10469 10462 10455 10448 10440 10433 10425 10417 10410 10401 10391 10383 10375 10366 10357 10349 10340 10332 10326 10320 10314 10307 10300 10295 10291 10286 10280